Location: Neu-Ulm
(48.3873°N, 10.0192°E)
Time: 21:25:37
(UTC+02:00)

Tiangong 2 - Visible Passes

Search period start: 21 August 2018 00:00
Search period end: 31 August 2018 00:00
Orbit: 384 x 395 km, 42.8° (Epoch: 20 August)

Date Brightness Start Highest point End Pass type
(mag) Time Alt. Az. Time Alt. Az. Time Alt. Az.
21 Aug 2.6 05:11:49 16° SSW 05:13:28 25° SSE 05:16:09 10° ESE visible
22 Aug 3.1 04:16:34 18° SE 04:16:34 18° SE 04:18:11 10° ESE visible
23 Aug 2.2 04:53:40 26° SSW 04:54:21 28° S 04:57:10 10° ESE visible
24 Aug 3.6 03:58:28 15° ESE 03:58:28 15° ESE 03:59:18 10° ESE visible
24 Aug 2.3 05:30:48 14° WSW 05:33:00 28° S 05:35:48 10° SE visible
25 Aug 2.3 04:35:41 28° SSE 04:35:41 28° SSE 04:38:04 10° ESE visible
26 Aug 2.5 05:12:59 21° SW 05:13:50 23° SSW 05:16:28 10° SE visible
27 Aug 3.5 04:18:05 15° SE 04:18:05 15° SE 04:18:50 10° SE visible
27 Aug 3.2 05:50:40 10° SW 05:52:19 13° SSW 05:53:58 10° S visible
28 Aug 3.2 04:55:44 15° S 04:55:44 15° S 04:56:52 10° SSE visible
